Simultaneous Nadir Overpasses (SNOs) Predictions

Prediction of SNOs between METOP-A and TERRA Satellite Orbit:

Table of predicted SNOs for the next 14.0 days since TLE Epoch: 5/25/2019
Index Date (METOP-A) Time (METOP-A) Lat,Lon (METOP-A) SZA (METOP-A ) Date (TERRA) Time (TERRA) Lat,Lon (TERRA) SZA (TERRA ) Distance(km) Time Diff (sec)
1 05/27/2019 05:38:12 81.46, 145.21 63.45 05/27/2019 05:39:06 81.45, 145.28 63.48 1.52 54
2 05/27/2019 06:28:51 -81.45, -46.72 116.48 05/27/2019 06:28:32 -81.46, -46.82 116.49 1.88 19
3 05/30/2019 01:12:35 81.45,-147.91 63.05 05/30/2019 01:13:20 81.46,-148.07 63.06 2.60 45
4 05/30/2019 02:03:16 -81.45, 19.37 116.97 05/30/2019 02:02:47 -81.45, 19.48 116.97 1.83 29
5 06/01/2019 20:47:00 81.45, -81.84 62.60 06/01/2019 20:47:35 81.45, -81.83 62.62 0.72 35
6 06/01/2019 21:37:40 -81.45, 85.85 117.37 06/01/2019 21:37:02 -81.44, 85.75 117.40 1.87 38
7 06/04/2019 16:21:24 81.45, -15.36 62.25 06/04/2019 16:21:49 81.45, -15.22 62.28 2.36 25
8 06/04/2019 17:12:04 -81.45, 152.34 117.72 06/04/2019 17:11:16 -81.45, 152.38 117.73 0.88 48
9 06/07/2019 11:55:47 81.45, 51.11 61.95 06/07/2019 11:56:03 81.44, 50.97 61.93 2.49 16




NCC Satellite Simultaneous Nadir Overpasses (SNOs) Prediction Service
